sat.trackr.live / text

‹ back to catalog

STARLINK-30975

NORAD 58446 · 2023-183K

PAYLOAD ACTIVE UNKNOWN

§ Identity

Operator
Country
US
Launch date
2023-11-28
Launch site
AFETR
Launch vehicle
Mass (kg)
RCS (m²)

Purposes: comms

External: N2YO · Heavens-Above · Gunter

§ Orbital elements

Epoch: 2026-05-24T21:50:53.168640Z

Period
94.27 min
Inclination
43.0040°
Eccentricity
0.0001369
Mean motion
15.27583990 rev/d
Perigee alt
482.1 km
Apogee alt
484.0 km
Semi-major
6,861.2 km
B*
6.9192e-5
RAAN
330.9567°
Arg perigee
286.1187°
Mean anomaly
73.9514°
Rev number
13,841

§ Raw data

STARLINK-309751 58446U 23183K   26144.91033760  .00001642  00000+0  69192-4 0  99932 58446  43.0040 330.9567 0001369 286.1187  73.9514 15.27583990138410

JSON: /api/v1/satellites/58446 · /tle

For live sub-satellite position, see the globe view (requires WebGL).

§ Visibility from observer

Set your observer location to see the next 7 days of passes ≥ 10°. The values pass through the URL so the page stays shareable.

No JS? Fill the form by hand. The geolocation button needs JavaScript.